Location: Palazzolo
(45.4500°N, 10.8167°E)
Time: 01:25:23
(UTC+00:00)

Daily predictions for brighter satellites

Satellite Brightness Start Highest point End
(mag) Time Altitude Azimuth Time Altitude Azimuth Time Altitude Azimuth
Cosmos 1862 3.2 00:07:57 64° ESE 00:08:04 65° E 00:11:44 10° NNE
Cosmos 2297 Rocket 2.7 00:05:25 10° NNW 00:11:01 57° ENE 00:15:01 19° SE
Cosmos 1782 2.7 00:08:19 10° NNW 00:11:51 62° W 00:11:51 62° W
Cosmos 1726 Rocket 3.6 00:10:12 10° N 00:14:43 78° E 00:15:54 49° SSE
CZ-2D R/B 4.5 00:14:12 10° ENE 00:16:14 12° E 00:18:15 10° ESE
Cosmos 2112 Rocket 3.9 00:11:08 10° NNW 00:16:25 89° WSW 00:18:23 40° SSE
Cosmos 2058 3.3 00:18:00 44° W 00:18:25 46° WNW 00:22:14 10° N
BREEZE M DEB (TANK) 4.3 00:00:44 10° SW 00:19:03 57° SSE 00:23:47 10° ENE
Cosmos 1892 Rocket 3.6 00:18:39 51° SSE 00:19:33 67° E 00:23:51 10° NNE
Cosmos 44 4.2 00:19:22 24° W 00:21:16 36° NW 00:25:23 10° NNE
Dummy Sat-02 4.5 00:21:12 71° W 00:21:17 72° W 00:24:56 10° N
Cosmos 1980 Rocket 4.2 00:23:29 12° SE 00:26:15 17° E 00:29:45 10° ENE
Spot 2 4.2 00:29:12 38° SE 00:30:37 65° ENE 00:34:38 10° N
Resurs 1-4 Rocket 4.2 00:27:20 10° NE 00:30:59 19° E 00:34:32 10° SE
Cosmos 1680 Rocket 3.7 00:26:40 10° NNW 00:31:48 55° WSW 00:33:13 42° SSW
RESURS DK-1 2.3 00:29:43 10° NNW 00:33:43 75° ENE 00:34:58 42° SE
H-2A R/B 2.0 00:34:14 65° SW 00:34:31 68° WSW 00:38:17 10° NNW
Cosmos 1697 Rocket 3.3 00:32:50 30° SSE 00:35:03 44° ESE 00:40:24 10° NE
Cosmos 1656 3.8 00:33:45 36° SW 00:36:05 70° WNW 00:41:40 10° NNE
SeaSat 1 3.1 00:31:58 12° SE 00:36:18 54° ENE 00:41:05 10° NNW
Cosmos 2227 Rocket 3.1 00:36:59 10° NNW 00:42:28 47° ENE 00:47:56 10° SE
MSX 4.3 00:39:46 10° NNE 00:45:23 53° E 00:48:21 27° SSE
Cosmos 1602 3.9 00:46:12 42° WNW 00:46:12 42° WNW 00:49:15 10° N
Cosmos 1356 Rocket 3.2 00:42:31 10° NNW 00:46:31 85° W 00:47:29 51° S
BlueWalker 3 4.0 00:43:50 10° NW 00:47:02 27° NNE 00:50:13 10° ENE
Cosmos-2242 3.1 00:47:08 10° N 00:51:19 67° E 00:53:05 33° SSE
ISS -2.0 00:51:56 10° NW 00:55:03 34° NNE 00:58:10 10° E
H-2A R/B 3.2 00:52:25 10° NNE 00:56:13 33° E 00:58:11 22° SE
Cosmos 1441 Rocket 2.9 00:58:03 57° SW 00:58:34 68° WNW 01:02:04 10° N
USA 32 4.5 00:59:07 24° SSE 01:02:10 57° E 01:07:18 10° NNE
Landsat 4 4.4 01:03:33 26° WNW 01:03:33 26° WNW 01:05:22 10° NW
NPP 3.8 00:57:52 10° NNE 01:03:15 67° ESE 01:06:10 28° S
Cosmos 1933 4.1 01:03:05 10° NNW 01:06:36 33° W 01:07:02 32° WSW
ALOS 4.3 01:03:50 10° NE 01:07:18 21° E 01:10:44 10° SE
Cosmos 1125 Rocket 3.9 01:06:12 28° S 01:08:54 58° ESE 01:14:04 10° NNE
DELTA 2 R/B (1) 4.0 01:07:24 32° SSW 01:09:13 42° S 01:14:27 10° E
Cosmos 2221 4.1 01:07:59 10° N 01:11:51 32° ENE 01:15:41 10° SE
CZ-2C R/B 3.6 01:11:03 26° SW 01:12:43 31° W 01:17:38 10° NNW
Meteor 2-3 Rocket 4.0 01:10:11 29° SW 01:13:03 57° WNW 01:18:48 10° N
Cosmos 2151 4.4 01:15:36 14° SSE 01:18:30 31° E 01:22:11 10° NNE
Orbus 7S? 4.5 01:17:40 31° SSW 01:20:01 73° SE 01:29:59 10° NE
Cosmos 1048 Rocket 4.1 01:18:23 10° NNW 01:23:39 58° WSW 01:26:52 23° S
Cosmos 2058 Rocket 3.7 01:19:54 10° NNW 01:24:01 39° W 01:25:27 30° SW
Cosmos 1315 Rocket 3.3 01:20:45 10° NNW 01:24:18 38° W 01:25:07 33° SW
IDEFIX/ARIANE 42P 2.7 01:24:13 10° N 01:29:21 63° WNW 01:32:15 26° SW
Cosmos 1812 Rocket 3.8 01:27:54 10° N 01:32:18 68° E 01:35:56 15° SSE
Lacrosse 5 rocket 4.0 01:33:23 10° NNW 01:36:26 21° NNE 01:39:27 10° ENE
Cosmos 2219 3.8 01:35:22 10° NNW 01:41:01 58° ENE 01:46:34 10° SE
Meteor 1-26 Rocket 4.4 01:36:12 10° NNW 01:41:22 48° W 01:44:35 22° SSW
CZ-4C R/B 4.3 01:39:40 10° WNW 01:43:12 18° NNW 01:47:18 10° NNE
SL-16 R/B 4.5 01:41:37 10° SE 01:45:04 17° E 01:48:31 10° ENE
SL-16 R/B 3.9 01:39:46 10° SE 01:45:31 40° ENE 01:51:17 10° N
ADEOS II 2.7 01:40:29 10° NNE 01:45:37 52° E 01:50:13 13° S
Cosmos 921 Rocket 4.3 01:42:22 10° N 01:46:36 41° ENE 01:50:45 10° SE
Envisat 3.9 01:43:26 10° NNE 01:48:19 45° E 01:53:07 10° S
Cosmos 2263 Rocket 2.3 01:42:38 10° NNW 01:48:19 77° ENE 01:53:55 10° SSE
Cosmos 1825 Rocket 4.2 01:45:38 13° SSE 01:49:14 51° E 01:53:26 10° NNE
Cosmos 1238 Rocket 3.6 01:47:27 10° N 01:52:47 78° E 01:57:56 10° SSE
Gbstr 26 Del rocket 4.2 01:46:36 10° WNW 01:53:06 88° SSW 02:00:45 10° ESE
Cosmos 2297 Rocket 3.4 01:50:14 10° NW 01:54:36 23° WSW 01:56:44 19° SW
CZ-2D R/B 2.1 01:51:40 10° NNE 01:56:58 90° WNW 02:01:07 16° SSW
MOZ.5/SAFIR/RUBIN 5/SL-8 4.5 01:56:34 21° SSW 01:59:00 35° W 02:03:15 10° NNW
BREEZE-M DEB (TANK) 1.4 02:01:22 10° WNW 02:03:35 55° SSW 02:06:06 10° SE
Meteor 2-6 Rocket 4.4 02:01:58 10° NNW 02:07:32 57° W 02:13:11 10° S
Cosmos 1602 Rocket 3.9 02:05:12 19° SW 02:07:58 48° WNW 02:12:10 10° N
Cosmos 1758 Rocket 4.5 02:05:25 18° SW 02:07:59 34° WNW 02:12:00 10° N
Cosmos 1980 Rocket 2.2 02:05:14 17° SSW 02:09:32 74° WNW 02:15:10 10° NNE
Resurs 1-4 Rocket 2.3 02:05:57 10° N 02:11:12 64° WNW 02:15:34 15° SSW
Tiangong -1.3 02:10:34 21° SW 02:12:11 35° S 02:15:14 10° ESE
Meteor 1-10 Rocket 4.3 02:07:48 10° N 02:13:30 87° ENE 02:19:17 10° S
Nadezhda 1 Rocket 4.4 02:07:58 10° NNW 02:13:52 44° W 02:19:09 12° SSW
SeaSat 1 3.6 02:11:34 17° SW 02:13:55 23° WSW 02:17:48 10° NW
Cosmos 1745 Rocket 4.4 02:12:25 15° SSW 02:17:28 49° WNW 02:23:38 10° N
Cosmos 2181 Rocket 4.4 02:11:51 10° N 02:18:01 66° E 02:24:06 10° SSE
Cosmos 1697 Rocket 3.8 02:14:32 12° WSW 02:19:07 33° NW 02:24:12 10° N
H-2A R/B 3.3 02:15:53 10° NNE 02:20:30 37° E 02:25:01 10° SSE
Cosmos 1346 Rocket 2.8 02:19:15 10° S 02:22:51 71° E 02:26:32 10° NNE
FENGYUN 3A 4.5 02:18:41 10° N 02:23:35 37° WNW 02:27:59 13° SW
Cosmos 614 Rocket 4.3 02:19:23 10° NNW 02:24:11 44° WSW 02:28:57 10° S
BlueWalker 3 1.8 02:21:27 10° WNW 02:25:07 84° NNE 02:28:46 10° ESE
Cosmos 2227 Rocket 3.1 02:21:28 10° NW 02:26:15 29° WSW 02:31:00 10° SSW
Cosmos 2150 Rocket 4.2 02:24:21 13° SSW 02:29:14 71° WNW 02:34:42 10° NNE
AQUA 3.9 02:26:24 10° NNE 02:31:07 80° ESE 02:35:48 10° SSW
CENTAUR R/B 4.2 02:27:08 10° SSE 02:31:18 23° ESE 02:36:08 10° ENE
H-2A R/B 3.4 02:28:06 10° NNW 02:31:29 24° WNW 02:34:41 11° WSW
Cosmos 1709 Rocket 4.4 02:25:56 12° SSW 02:31:46 52° WNW 02:37:58 10° N
ISS -3.8 02:28:37 10° WNW 02:31:57 64° SSW 02:35:16 10° SE
ATLAS 2AS CENTAUR R/B 2.6 02:32:38 10° NW 02:39:25 78° SW 02:46:06 10° SSE
USA 290 2.6 02:36:40 10° NW 02:39:49 43° WSW 02:42:56 10° S
SL-23 DEB 3.5 02:37:57 12° SW 02:40:43 66° SSE 02:44:28 10° ENE
CZ-2C R/B 3.9 02:38:09 10° NNE 02:42:42 36° E 02:47:21 10° SSE
Cosmos 1842 4.2 02:40:33 10° N 02:43:48 42° ENE 02:47:02 10° SSE
ALOS 2.8 02:40:09 10° N 02:44:29 44° WNW 02:48:49 10° SW
GENESIS II 4.1 02:43:49 10° SSW 02:46:25 45° ESE 02:49:04 10° NE
Intercosmos 24 Rocket 4.3 02:44:27 10° SSW 02:48:01 79° W 02:52:28 10° N
Cosmos 1844 Rocket 3.8 02:42:32 10° NNW 02:48:02 50° ENE 02:53:27 10° SE
Cosmos 2360 Rocket 4.0 02:43:32 10° SSE 02:48:09 27° ESE 02:52:46 10° NE
Cosmos 2221 3.8 02:45:25 10° NW 02:48:46 23° W 02:52:07 10° SW
Cosmos 1743 2.7 02:45:43 10° SSW 02:48:57 48° W 02:52:15 10° N
Alouette 2 Rocket 4.1 02:47:56 10° S 02:51:50 68° E 02:57:20 10° NNE
DELTA 2 R/B (1) 4.0 02:49:49 10° WSW 02:55:06 44° S 03:00:23 10° ESE
Cosmos 2151 4.4 02:52:02 10° SW 02:55:22 23° WNW 02:58:44 10° NNW
UNK 4.3 02:51:23 10° SSE 02:55:50 64° ENE 03:00:20 10° N
Cosmos 1140 Rocket 4.2 02:51:23 10° NNW 02:56:28 59° ENE 03:01:33 10° SE
USA 281 4.3 02:53:31 10° NE 02:59:45 43° ESE 03:05:55 10° S
CZ-3 R/B 4.0 03:00:26 10° WSW 03:27:56 39° SSW 03:36:41 10° SE
